| time (UTC) | temp F | wind direction | speed MPH | gust MPH | rain 1hr in | rain 24hr in | rain mn in | humidity % | barometer mb |
| 20260831080123 | 72 | 0 | 0.0 | 0.0 | 0.00 | 0.00 | 0.00 | 94 | 1020.2 |
| 20260831074602 | 72 | 0 | 0.0 | 0.0 | 0.00 | 0.00 | 0.00 | 94 | 1020.3 |
| 20260831073059 | 72 | 0 | 0.0 | 0.0 | 0.00 | 0.00 | 0.00 | 94 | 1020.5 |
| 20260831071556 | 73 | 0 | 0.0 | 0.0 | 0.00 | 0.00 | 0.00 | 93 | 1020.3 |
| 20260831070052 | 73 | 0 | 0.0 | 0.0 | 0.00 | 0.00 | 0.00 | 93 | 1020.4 |
| 20260831064557 | 73 | 0 | 0.0 | 0.0 | 0.00 | 0.00 | 0.00 | 92 | 1020.4 |
| 20260831063111 | 74 | 0 | 0.0 | 3.0 | 0.00 | 0.00 | 0.00 | 91 | 1020.5 |
| 20260831061559 | 74 | 137 | 1.0 | 5.0 | 0.00 | 0.00 | 0.00 | 91 | 1020.6 |
| 20260831060056 | 74 | 138 | 1.0 | 4.0 | 0.00 | 0.00 | 0.00 | 91 | 1020.6 |
| 20260831054559 | 74 | 0 | 0.0 | 0.0 | 0.00 | 0.00 | 0.00 | 90 | 1020.8 |
| 20260831053130 | 75 | 0 | 0.0 | 3.0 | 0.00 | 0.00 | 0.00 | 90 | 1020.8 |
| 20260831051556 | 75 | 138 | 1.0 | 3.0 | 0.00 | 0.00 | 0.00 | 90 | 1020.7 |
| 20260831050055 | 75 | 0 | 0.0 | 4.0 | 0.00 | 0.00 | 0.00 | 89 | 1020.8 |
| 20260831044641 | 76 | 0 | 0.0 | 0.0 | 0.00 | 0.00 | 0.00 | 88 | 1020.7 |
| 20260831043057 | 76 | 0 | 0.0 | 0.0 | 0.00 | 0.00 | 0.00 | 87 | 1020.7 |
| 20260831041609 | 77 | 0 | 0.0 | 0.0 | 0.00 | 0.00 | 0.00 | 86 | 1020.8 |
| 20260831040104 | 77 | 0 | 0.0 | 2.0 | 0.00 | 0.00 | 0.00 | 85 | 1020.7 |
| 20260831034606 | 77 | 138 | 0.0 | 2.0 | 0.00 | 0.00 | 0.00 | 85 | 1020.8 |
| 20260831033110 | 77 | 138 | 1.0 | 3.0 | 0.00 | 0.00 | 0.00 | 84 | 1020.7 |
| 20260831031556 | 77 | 132 | 0.0 | 3.0 | 0.00 | 0.00 | 0.00 | 84 | 1020.7 |
| 20260831030052 | 78 | 0 | 0.0 | 0.0 | 0.00 | 0.00 | 0.00 | 84 | 1020.8 |
| 20260831024557 | 78 | 0 | 0.0 | 2.0 | 0.00 | 0.00 | 0.00 | 83 | 1020.6 |
| 20260831023100 | 78 | 132 | 1.0 | 2.0 | 0.00 | 0.00 | 0.00 | 82 | 1020.7 |
| 20260831021557 | 79 | 132 | 1.0 | 5.0 | 0.00 | 0.00 | 0.00 | 81 | 1020.5 |
| 20260831020053 | 80 | 136 | 3.0 | 7.0 | 0.00 | 0.00 | 0.00 | 78 | 1020.4 |
| 20260831014558 | 80 | 0 | 0.0 | 0.0 | 0.00 | 0.00 | 0.00 | 77 | 1020.4 |
| 20260831013058 | 80 | 0 | 0.0 | 0.0 | 0.00 | 0.00 | 0.00 | 77 | 1020.1 |
| 20260831011557 | 82 | 0 | 0.0 | 0.0 | 0.00 | 0.00 | 0.00 | 75 | 1020.2 |
| 20260831004607 | 83 | 0 | 0.0 | 0.0 | 0.00 | 0.00 | 0.00 | 71 | 1019.7 |
| 20260831003059 | 84 | 0 | 0.0 | 3.0 | 0.00 | 0.00 | 0.00 | 70 | 1019.7 |
| 20260831001555 | 84 | 0 | 0.0 | 0.0 | 0.00 | 0.00 | 0.00 | 69 | 1019.5 |
| 20260831000110 | 85 | 0 | 0.0 | 0.0 | 0.00 | 0.00 | 0.00 | 68 | 1019.6 |
| 20260830234606 | 86 | 0 | 0.0 | 0.0 | 0.00 | 0.00 | 0.00 | 66 | 1019.5 |
| 20260830233058 | 87 | 0 | 0.0 | 4.0 | 0.00 | 0.00 | 0.00 | 65 | 1019.4 |
| 20260830231602 | 88 | 143 | 2.0 | 5.0 | 0.00 | 0.00 | 0.00 | 63 | 1019.6 |
| 20260830230057 | 88 | 0 | 0.0 | 6.0 | 0.00 | 0.00 | 0.00 | 63 | 1019.7 |
| 20260830224552 | 89 | 139 | 1.0 | 6.0 | 0.00 | 0.00 | 0.00 | 62 | 1019.6 |
| 20260830223051 | 89 | 109 | 2.0 | 5.0 | 0.00 | 0.00 | 0.00 | 62 | 1019.6 |
| 20260830221557 | 89 | 132 | 1.0 | 7.0 | 0.00 | 0.00 | 0.00 | 62 | 1019.5 |
| 20260830220101 | 89 | 130 | 3.0 | 5.0 | 0.00 | 0.00 | 0.00 | 61 | 1019.6 |
| 20260830214554 | 90 | 131 | 2.0 | 5.0 | 0.00 | 0.00 | 0.00 | 61 | 1019.5 |
| 20260830213107 | 90 | 148 | 3.0 | 7.0 | 0.00 | 0.00 | 0.00 | 63 | 1019.5 |
| 20260830211605 | 90 | 0 | 0.0 | 6.0 | 0.00 | 0.00 | 0.00 | 62 | 1019.6 |
| 20260830204551 | 90 | 139 | 0.0 | 7.0 | 0.00 | 0.00 | 0.00 | 62 | 1019.8 |
| 20260830203051 | 90 | 105 | 3.0 | 7.0 | 0.00 | 0.00 | 0.00 | 63 | 1020.0 |
| 20260830201605 | 90 | 146 | 4.0 | 8.0 | 0.00 | 0.00 | 0.00 | 62 | 1020.0 |
| 20260830194558 | 89 | 150 | 4.0 | 7.0 | 0.00 | 0.00 | 0.00 | 64 | 1020.7 |
| 20260830193101 | 89 | 132 | 3.0 | 7.0 | 0.00 | 0.00 | 0.00 | 66 | 1020.9 |
| 20260830191558 | 89 | 128 | 2.0 | 8.0 | 0.00 | 0.00 | 0.00 | 64 | 1021.1 |
| 20260830190056 | 89 | 153 | 3.0 | 8.0 | 0.00 | 0.00 | 0.00 | 64 | 1021.3 |
| 20260830184558 | 88 | 0 | 1.0 | 5.0 | 0.00 | 0.00 | 0.00 | 68 | 1021.3 |
| 20260830183057 | 87 | 148 | 3.0 | 7.0 | 0.00 | 0.00 | 0.00 | 67 | 1021.6 |
| 20260830181557 | 89 | 141 | 1.0 | 4.0 | 0.00 | 0.00 | 0.00 | 66 | 1021.7 |
| 20260830180103 | 89 | 163 | 2.0 | 7.0 | 0.00 | 0.00 | 0.00 | 66 | 1021.8 |
| 20260830174617 | 88 | 0 | 0.0 | 5.0 | 0.00 | 0.00 | 0.00 | 65 | 1021.9 |
| 20260830173104 | 88 | 141 | 2.0 | 5.0 | 0.00 | 0.00 | 0.00 | 67 | 1022.0 |
| 20260830171603 | 87 | 0 | 2.0 | 7.0 | 0.00 | 0.00 | 0.00 | 68 | 1022.2 |
| 20260830170106 | 87 | 208 | 1.0 | 9.0 | 0.00 | 0.00 | 0.00 | 70 | 1022.5 |
| 20260830164600 | 86 | 152 | 3.0 | 9.0 | 0.00 | 0.00 | 0.00 | 71 | 1022.8 |
| 20260830163104 | 85 | 242 | 0.0 | 7.0 | 0.00 | 0.00 | 0.00 | 75 | 1022.8 |
| 20260830161621 | 84 | 194 | 2.0 | 4.0 | 0.00 | 0.00 | 0.00 | 77 | 1022.9 |
| 20260830160058 | 85 | 132 | 2.0 | 4.0 | 0.00 | 0.00 | 0.00 | 76 | 1023.0 |
| 20260830154555 | 83 | 128 | 2.0 | 5.0 | 0.00 | 0.00 | 0.00 | 78 | 1022.9 |
| 20260830153104 | 83 | 219 | 1.0 | 7.0 | 0.00 | 0.00 | 0.00 | 79 | 1022.9 |
| 20260830151556 | 83 | 200 | 2.0 | 11.0 | 0.00 | 0.00 | 0.00 | 78 | 1022.9 |
| 20260830150119 | 82 | 0 | 3.0 | 8.0 | 0.00 | 0.00 | 0.00 | 80 | 1022.8 |
| 20260830144559 | 82 | 141 | 3.0 | 7.0 | 0.00 | 0.00 | 0.00 | 81 | 1022.8 |
| 20260830143101 | 80 | 136 | 2.0 | 7.0 | 0.00 | 0.00 | 0.00 | 85 | 1022.8 |
| 20260830141602 | 79 | 138 | 3.0 | 8.0 | 0.00 | 0.00 | 0.00 | 85 | 1022.8 |
| 20260830134555 | 77 | 147 | 3.0 | 8.0 | 0.00 | 0.00 | 0.00 | 88 | 1022.6 |
| 20260830133100 | 76 | 130 | 2.0 | 7.0 | 0.00 | 0.00 | 0.00 | 88 | 1022.6 |
| 20260830131603 | 76 | 146 | 3.0 | 7.0 | 0.00 | 0.00 | 0.00 | 90 | 1022.5 |
| 20260830130110 | 75 | 150 | 3.0 | 8.0 | 0.00 | 0.00 | 0.00 | 91 | 1022.5 |
| 20260830124602 | 74 | 115 | 4.0 | 9.0 | 0.00 | 0.00 | 0.00 | 92 | 1022.4 |
| 20260830123057 | 73 | 155 | 4.0 | 8.0 | 0.00 | 0.00 | 0.00 | 93 | 1022.4 |
| 20260830121602 | 73 | 143 | 2.0 | 8.0 | 0.00 | 0.00 | 0.00 | 93 | 1022.0 |
| 20260830114609 | 72 | 147 | 3.0 | 5.0 | 0.00 | 0.00 | 0.00 | 94 | 1021.7 |
| 20260830113055 | 72 | 133 | 2.0 | 5.0 | 0.00 | 0.00 | 0.00 | 94 | 1021.7 |
| 20260830111558 | 72 | 139 | 0.0 | 4.0 | 0.00 | 0.00 | 0.00 | 94 | 1021.5 |
| 20260830110057 | 72 | 0 | 0.0 | 0.0 | 0.00 | 0.00 | 0.00 | 94 | 1021.5 |
| 20260830104555 | 72 | 0 | 0.0 | 0.0 | 0.00 | 0.00 | 0.00 | 93 | 1021.4 |
| 20260830103100 | 72 | 0 | 0.0 | 3.0 | 0.00 | 0.00 | 0.00 | 93 | 1021.3 |
| 20260830101602 | 72 | 136 | 0.0 | 5.0 | 0.00 | 0.00 | 0.00 | 93 | 1021.3 |
| 20260830100100 | 73 | 139 | 2.0 | 4.0 | 0.00 | 0.00 | 0.00 | 92 | 1021.3 |
| 20260830094557 | 73 | 144 | 1.0 | 5.0 | 0.00 | 0.00 | 0.00 | 92 | 1021.0 |
| 20260830093055 | 73 | 148 | 2.0 | 5.0 | 0.00 | 0.00 | 0.00 | 92 | 1021.0 |
| 20260830091558 | 73 | 132 | 2.0 | 4.0 | 0.00 | 0.00 | 0.00 | 92 | 1021.0 |
| 20260830090122 | 73 | 137 | 2.0 | 4.0 | 0.00 | 0.00 | 0.00 | 92 | 1021.0 |
| 20260830084559 | 73 | 142 | 2.0 | 5.0 | 0.00 | 0.00 | 0.00 | 92 | 1020.9 |
| 20260830083101 | 73 | 140 | 1.0 | 4.0 | 0.00 | 0.00 | 0.00 | 92 | 1020.7 |
| 20260830081551 | 73 | 140 | 1.0 | 5.0 | 0.00 | 0.00 | 0.00 | 92 | 1021.0 |